星链-30915 (STARLINK-30915 )

导读

STARLINK-30915是美国太空探索技术公司SpaceX星链星座中的一颗卫星,于北京时间2023年11月20日发射入轨,归属星链互联网项目,旨在为全球提供高速低延迟宽带互联网服务。作为星链组网的成员卫星,它延续了该星座批量部署的特点,服务覆盖全球多数偏远与网络欠发达区域。

基本信息
目录编号:
58380
目录名称:
STARLINK-30915
国际标识:
2023-178G
轨道中心:
EARTH
卫星名称:
星链-30915
卫星全名:
星链-30915 (STARLINK-30915 )
卫星状态:
在轨 (已飞行1020 天)
发射日期:
2023-11-20 UTC
国别 :
美国 (US)
星等 :
--
轨道信息
数据来源 国际轨道数据
星历时间: 2026-09-05T09:06:01+0800
7小时前
查看轨道信息
半长轴: 6840.85km
偏心率: 0.0001671
轨道倾角: 53.161°
近地点辐角 102.765°
升交点赤经 155.619°
平近点角 257.354°
近地点: 461.569km
远地点: 463.857km
周期: 93.848分钟
每日圈数: 15.343969
详细信息
固有亮度:
5
最大亮度:
0.3
卫星平台:
Starlink v2.0 mini
覆盖范围:
全球
运营商:
太空探索技术公司
运营商所在国:
美国
制造商(研发单位):
太空探索技术公司
制造商所在国:
美国
使用方式:
暂无
卫星简介
星链(Starlink)计划是由太空探索技术公司(SpaceX)提出的一个巨型低轨卫星互联网星座项目,计划在2019年至2024年间在太空搭建由约1.2万颗卫星组成的“星链”网络,其中1584颗将部署在地球上空550千米处的近地轨道,并从2020年开始工作。该卫星仍在工作。
2D轨道图
3D轨道图
轨道高度分析图
轨道倾角分析图
轨道综合分析图
查看轨道综合分析图
交会数据列表
事件ID 空间交会对象 最接近时刻(TCA) 交会距离 交会风险概率(CRP) 交会风险指数(CRI) 操作
CDM_260907-031205-838006-263422
2026-09-07T
03:12:12+0000
1.677 km
极远距离
4.690496E-6 低风险 0.48